Date,TemperatureHighF,TemperatureAvgF,TemperatureLowF,DewpointHighF,DewpointAvgF,DewpointLowF,HumidityHigh,HumidityAvg,HumidityLow,PressureMaxIn,PressureMinIn,WindSpeedMaxMPH,WindSpeedAvgMPH,GustSpeedMaxMPH,PrecipitationSumIn
2012-1-8,64.0,54.9,49.8,43.1,34.8,29.2,60,36,26,30.22,30.12,5,1,0,0.00
2012-1-9,66.1,55.9,50.8,44.4,37.0,29.7,68,39,26,30.22,30.13,3,0,0,0.00
2012-1-10,57.7,50.4,46.0,49.6,41.4,32.3,96,67,34,30.16,30.08,4,1,0,0.00
2012-1-11,63.2,50.8,44.7,48.3,42.6,38.3,95,69,35,30.12,30.02,2,0,0,0.00
2012-1-12,64.1,54.5,47.6,50.4,39.9,34.5,81,48,31,30.10,30.00,5,1,0,0.00
2012-1-13,68.9,61.0,55.1,41.3,33.4,25.8,40,25,16,30.18,30.09,3,0,0,0.00
2012-1-14,67.2,56.8,48.3,49.2,37.1,27.6,90,41,19,30.17,30.08,3,0,0,0.00
2012-1-15,51.5,47.6,44.6,46.5,41.6,35.3,92,74,47,30.18,30.07,10,1,0,0.00
2012-1-16,47.8,43.1,38.6,36.8,33.6,28.4,76,61,37,30.35,30.17,11,1,0,0.00
2012-1-17,49.9,42.5,37.7,39.2,35.1,27.9,83,69,31,30.42,30.34,4,1,0,0.00
2012-1-18,51.1,43.6,36.4,44.0,37.9,30.0,95,74,56,30.43,30.29,5,1,0,0.00
2012-1-19,51.6,46.9,41.9,49.3,44.4,39.0,97,88,76,30.28,30.10,3,0,0,0.06
2012-1-20,56.7,53.5,49.7,55.9,53.1,49.0,99,98,95,30.10,29.85,9,2,0,0.12
2012-1-21,54.5,48.7,42.8,54.3,47.3,41.5,100,93,79,30.18,29.78,9,2,0,0.24
2012-1-22,55.5,50.0,43.7,52.9,46.3,39.3,94,83,63,30.19,29.85,9,2,0,0.07
2012-1-23,55.4,50.8,47.4,53.8,49.8,45.3,99,95,87,30.18,29.77,12,2,0,0.12
2012-1-24,56.1,49.9,45.0,51.7,47.4,44.0,96,89,71,30.41,30.17,3,1,0,0.00
2012-1-25,64.7,54.4,46.8,56.1,50.4,44.4,97,83,66,30.42,30.30,5,2,0,0.00
2012-1-26,62.5,54.3,49.4,58.0,53.1,49.2,99,94,81,30.34,30.22,5,1,0,0.00
2012-1-27,60.0,53.4,49.2,52.1,46.9,34.4,99,75,36,30.24,30.17,4,2,0,0.00
2012-1-28,66.8,55.4,46.8,47.7,41.3,34.2,60,49,35,30.27,30.19,6,2,0,0.00
2012-1-29,66.6,57.4,48.9,48.0,41.5,33.0,89,48,29,30.23,30.12,3,0,0,0.00
2012-1-30,60.3,51.8,48.1,50.0,46.2,41.3,98,77,51,30.12,30.03,4,1,0,0.00
2012-1-31,58.8,49.0,45.1,51.4,47.2,43.7,97,91,69,30.22,30.06,5,1,0,0.00
2012-2-1,55.4,49.3,43.7,51.6,47.4,42.4,98,91,79,30.28,30.19,5,1,0,0.00
2012-2-2,63.1,52.0,47.3,49.5,44.2,38.6,92,69,31,30.22,29.95,4,1,0,0.00
2012-2-3,62.8,52.2,45.4,50.0,42.3,35.1,95,64,33,30.04,29.96,3,1,0,0.00
2012-2-4,65.0,55.0,50.0,42.2,34.4,30.4,56,35,20,30.09,30.01,4,0,0,0.00
2012-2-5,68.1,58.2,53.1,40.7,35.8,32.5,46,33,19,30.08,29.97,3,1,0,0.00
2012-2-6,61.0,54.3,48.9,51.4,44.0,35.0,87,62,28,29.98,29.76,9,1,0,0.00
2012-2-7,61.1,55.9,50.9,50.6,47.0,36.4,90,66,29,30.09,29.70,9,1,0,0.00
2012-2-8,64.1,53.8,47.7,53.3,49.3,46.5,94,81,59,30.22,30.08,4,1,0,0.00
2012-2-9,68.9,58.5,49.4,51.0,48.3,43.8,89,62,41,30.24,30.13,5,0,0,0.00
2012-2-10,58.7,52.7,48.1,54.6,49.4,42.8,98,86,55,30.22,30.11,4,0,0,0.11
2012-2-11,50.7,48.8,47.1,50.1,48.2,45.3,99,97,91,30.11,30.03,7,1,0,0.03
2012-2-12,50.6,48.2,45.8,48.0,46.6,44.2,97,92,86,30.11,30.02,4,0,0,0.02
2012-2-13,49.2,46.7,44.5,46.8,44.8,41.3,98,91,75,30.05,29.95,18,2,0,0.18
2012-2-14,53.1,47.6,44.0,48.0,44.9,42.8,95,87,75,30.15,30.01,7,1,0,0.00
2012-2-15,52.7,46.9,43.2,47.7,42.0,37.3,97,78,57,30.15,30.06,16,2,0,0.05
2012-2-16,60.1,49.2,43.4,46.6,39.9,32.8,96,65,29,30.25,30.15,6,1,0,0.00
2012-2-17,54.6,47.5,42.4,49.7,46.3,41.0,99,94,75,30.28,30.20,6,1,0,0.00
2012-2-18,51.9,48.3,45.0,49.1,46.2,41.9,100,90,76,30.24,30.13,12,2,0,0.01
2012-2-19,50.9,45.3,41.0,43.9,42.1,39.1,94,85,68,30.17,30.09,6,1,0,0.00
2012-2-20,57.2,49.3,43.3,49.9,46.3,41.7,98,87,68,30.21,30.10,4,0,0,0.00
2012-2-21,59.7,51.3,45.9,52.3,48.0,44.8,98,85,64,30.29,30.19,5,2,0,0.00
2012-2-22,73.3,57.4,48.4,56.1,49.9,47.4,96,72,38,30.25,30.09,6,2,0,0.00
2012-2-23,62.8,53.1,46.6,53.0,47.6,39.7,99,78,45,30.09,29.95,9,2,0,0.00
2012-2-24,68.5,57.7,48.3,48.3,39.9,31.5,91,47,19,30.22,29.97,4,1,0,0.00
2012-2-25,54.4,47.8,43.6,47.4,43.8,41.2,94,82,53,30.30,30.15,6,2,0,0.00
2012-2-26,52.6,45.9,42.9,44.3,38.9,32.6,94,70,46,30.15,29.90,13,2,0,0.00
2012-2-27,48.4,44.1,40.6,43.3,39.8,36.4,94,80,64,30.02,29.86,11,2,0,0.02
2012-2-28,52.3,46.2,43.9,43.3,40.7,38.2,89,75,58,30.28,30.02,6,1,0,0.02
2012-2-29,50.4,47.5,42.2,49.6,46.1,41.6,98,93,72,30.29,30.15,8,1,0,0.17
2012-3-1,50.4,45.4,40.7,48.6,44.3,40.1,98,95,84,30.33,30.24,4,0,0,0.02
2012-3-2,62.5,48.4,40.4,45.3,40.9,35.2,97,71,33,30.34,30.25,6,1,0,0.00
2012-3-3,66.5,54.3,47.3,43.2,36.4,30.8,65,41,26,30.32,30.23,5,1,0,0.00
2012-3-4,77.3,60.3,51.0,52.0,44.6,39.9,75,48,24,30.22,30.04,10,2,0,0.00
2012-3-5,59.9,52.5,45.2,51.7,46.4,43.9,98,75,50,30.09,30.02,9,2,0,0.00
2012-3-6,50.2,45.9,42.6,47.1,41.9,37.9,99,83,56,30.07,29.98,18,3,0,0.05
2012-3-7,61.8,48.0,42.3,41.6,33.8,25.8,91,51,22,30.19,30.03,5,2,0,0.00
2012-3-8,67.2,51.6,42.2,42.5,33.3,25.6,80,40,21,30.34,30.18,3,0,0,0.00
2012-3-9,76.2,56.5,44.9,52.1,38.9,30.6,94,47,15,30.33,30.13,5,1,0,0.00
2012-3-10,56.8,47.5,43.4,49.6,45.5,42.1,96,90,68,30.13,30.03,6,1,0,0.00
2012-3-11,57.0,49.0,42.8,49.0,45.2,41.4,95,83,60,30.11,30.04,4,0,0,0.00
2012-3-12,55.2,48.8,42.4,50.5,45.7,41.1,97,86,67,30.06,29.97,6,1,0,0.00
2012-3-13,57.2,52.5,49.2,51.1,49.5,47.5,96,86,74,30.04,29.95,7,2,0,0.00
2012-3-14,58.8,54.7,52.3,54.5,52.2,50.4,93,89,80,30.16,30.01,9,2,0,0.00
2012-3-15,59.8,54.5,51.9,55.9,52.8,50.4,99,92,83,30.17,30.08,5,1,0,0.00
2012-3-16,57.1,52.8,48.2,54.4,52.1,48.0,99,97,87,30.10,29.76,6,2,0,0.70
2012-3-17,48.2,43.8,41.1,48.0,42.7,40.0,99,95,82,29.76,29.53,12,1,0,0.39
2012-3-18,50.6,44.5,40.6,42.7,39.8,36.9,95,79,61,29.97,29.72,13,3,0,0.08
2012-3-19,52.7,44.9,39.1,41.3,38.7,32.7,94,74,43,30.10,29.96,6,1,0,0.01
2012-3-20,60.0,51.6,45.1,49.6,45.0,37.4,96,73,55,30.19,30.09,4,1,0,0.00
2012-3-21,66.0,54.9,48.9,56.0,50.5,47.5,98,82,53,30.17,30.00,5,1,0,0.00
2012-3-22,51.7,48.8,44.5,51.5,46.9,41.3,99,91,75,30.04,29.95,11,1,0,0.00
2012-3-23,55.4,47.2,39.7,46.1,41.2,34.5,90,75,45,30.10,29.91,5,1,0,0.00
2012-3-24,52.7,45.8,43.4,47.6,43.2,37.4,98,88,62,29.92,29.80,6,1,0,0.76
2012-3-25,57.3,47.2,41.5,50.7,45.1,41.3,99,91,70,29.93,29.78,9,1,0,0.27
2012-3-26,55.0,48.7,44.2,50.3,45.2,41.1,94,84,69,30.11,29.93,7,1,0,0.00
2012-3-27,60.6,53.2,48.6,52.9,47.5,40.9,97,76,65,30.06,29.93,11,3,0,0.08
2012-3-28,58.3,52.4,47.6,55.6,51.9,47.4,99,98,86,30.14,29.97,5,1,0,0.02
2012-3-29,64.2,51.7,45.5,54.5,49.6,45.3,100,91,52,30.16,30.07,5,0,0,0.00
2012-3-30,62.5,53.1,46.9,55.2,51.4,46.7,99,92,69,30.12,29.94,5,0,0,0.00
2012-3-31,58.2,51.6,46.1,51.9,49.2,44.9,98,89,68,30.09,29.79,9,2,0,0.54
2012-4-1,55.2,48.4,44.6,46.9,44.2,42.5,95,81,62,30.29,30.09,11,2,0,0.05
2012-4-2,61.6,50.3,43.7,50.2,45.9,42.4,97,82,43,30.26,30.07,8,1,0,0.00
2012-4-3,58.7,51.2,45.5,51.5,48.0,44.5,97,86,65,30.12,30.04,10,1,0,0.07
2012-4-4,54.1,47.4,42.0,47.6,43.4,40.3,98,82,62,30.20,30.12,13,2,0,0.01
2012-4-5,52.2,46.3,42.7,44.0,40.6,38.1,83,75,58,30.22,30.12,12,2,0,0.00
2012-4-6,54.4,46.2,39.5,44.8,41.2,37.8,93,78,52,30.28,30.15,7,1,0,0.00
2012-4-7,61.9,51.0,44.0,49.5,41.9,34.8,92,65,37,30.15,30.06,4,1,0,0.00
2012-4-8,60.5,48.9,42.2,49.5,44.5,34.0,97,81,39,30.08,30.00,5,1,0,0.00
2012-4-9,58.7,50.4,44.4,50.2,45.2,24.9,96,79,24,30.01,29.87,7,1,0,0.00
2012-4-10,53.8,51.0,49.4,52.7,49.4,44.5,99,93,67,29.90,29.83,9,1,0,0.30
2012-4-11,56.5,51.3,48.4,52.9,49.5,47.4,100,92,73,30.04,29.83,12,2,0,0.04
2012-4-12,57.8,52.4,47.4,52.8,49.2,44.8,98,86,67,30.07,29.83,11,3,0,0.33
2012-4-13,53.2,48.1,43.8,50.9,45.8,43.2,98,89,75,29.92,29.72,10,2,0,0.65
2012-4-14,55.6,49.2,45.4,49.7,45.9,43.0,93,85,71,30.17,29.92,13,2,0,0.03
2012-4-15,56.3,49.6,47.2,50.7,47.8,46.0,97,91,76,30.24,30.17,5,1,0,0.00
2012-4-16,65.8,51.7,45.5,53.0,48.5,45.1,99,87,53,30.25,30.18,9,1,0,0.00
2012-4-17,65.2,52.7,48.0,56.9,49.5,44.8,98,87,60,30.18,30.11,6,1,0,0.00
2012-4-18,59.7,52.6,48.2,53.0,50.2,47.8,99,89,69,30.17,30.10,9,2,0,0.00
2012-4-19,68.2,55.8,50.5,59.4,53.7,50.3,99,91,67,30.17,30.07,6,2,0,0.00
2012-4-20,83.8,64.1,50.4,64.4,56.7,50.0,99,73,43,30.08,29.95,7,2,0,0.00
2012-4-21,77.7,63.5,48.6,63.1,55.9,47.4,96,71,52,29.95,29.87,4,1,0,0.00
2012-4-22,58.6,51.8,46.1,54.7,50.5,45.3,99,94,82,29.95,29.89,5,1,0,0.00
2012-4-23,62.5,54.6,50.9,55.8,52.3,50.6,99,90,71,30.01,29.92,6,1,0,0.00
2012-4-24,62.7,57.1,52.6,55.2,53.0,50.8,93,83,67,30.04,29.95,6,1,0,0.00
2012-4-25,65.2,56.8,53.3,58.2,54.5,51.6,99,90,71,30.02,29.80,4,0,0,0.12
2012-4-26,59.3,53.1,48.4,54.5,50.9,46.0,100,90,64,30.21,29.80,8,1,0,0.26
2012-4-27,58.6,51.0,45.6,51.5,47.5,43.8,95,84,61,30.24,30.14,10,2,0,0.00
2012-4-28,58.1,51.7,46.6,53.4,49.9,46.0,98,91,77,30.16,29.92,13,2,0,0.00
2012-4-29,67.8,52.2,48.9,59.0,50.9,48.7,99,94,67,29.95,29.89,6,1,0,0.00
2012-4-30,59.4,51.7,47.9,55.7,50.7,47.7,100,95,78,30.00,29.92,9,1,0,0.00
2012-5-1,54.5,49.4,46.7,49.8,47.4,45.1,98,91,76,29.99,29.94,14,2,0,0.00
2012-5-2,54.6,49.0,45.5,49.0,46.1,43.9,94,87,74,30.03,29.95,11,2,0,0.00
2012-5-3,58.6,51.9,44.8,54.2,49.6,44.1,98,89,77,30.11,30.00,3,1,0,0.00
2012-5-4,56.8,51.1,47.0,53.0,48.5,44.9,99,88,68,30.24,30.09,9,2,0,0.12
2012-5-5,64.5,52.8,44.3,52.3,47.0,43.4,98,77,50,30.22,30.06,5,2,0,0.00
2012-5-6,73.4,58.4,46.1,52.1,47.5,43.4,96,61,35,30.07,29.99,6,1,0,0.00
2012-5-7,76.9,61.6,48.8,58.1,49.3,44.2,96,58,31,30.01,29.95,6,1,0,0.00
2012-5-8,68.6,53.1,46.7,58.5,50.3,46.5,99,88,59,29.99,29.94,5,1,0,0.00
2012-5-9,56.1,50.0,46.8,51.7,48.5,46.0,99,93,79,30.00,29.93,7,2,0,0.00
2012-5-10,61.2,51.9,46.1,54.0,48.4,45.5,98,85,55,29.96,29.88,5,1,0,0.00
2012-5-11,56.2,49.7,45.8,52.8,48.5,45.4,99,95,78,29.99,29.88,4,1,0,0.00
2012-5-12,62.1,50.2,46.1,56.8,49.4,45.7,100,96,76,30.08,29.99,5,1,0,0.00
2012-5-13,58.5,52.1,48.7,53.6,50.2,48.5,100,91,76,30.11,30.06,5,1,0,0.00
2012-5-14,60.0,54.1,49.9,55.9,51.3,47.2,95,87,82,30.11,30.05,4,0,0,0.00
2012-5-15,58.8,51.5,48.9,53.9,49.9,48.1,99,93,77,30.08,30.02,7,1,0,0.00
2012-5-16,57.5,50.7,48.4,53.5,49.7,48.2,99,95,81,30.03,29.98,7,1,0,0.00
2012-5-17,55.0,50.1,47.9,51.7,48.8,47.0,100,94,82,29.99,29.92,11,1,0,0.00
2012-5-18,58.7,50.5,46.8,52.4,48.1,45.8,95,89,74,30.02,29.94,9,1,0,0.00
2012-5-19,57.8,50.3,45.8,52.8,48.0,44.8,97,89,75,30.02,29.96,10,1,0,0.00
2012-5-20,61.4,53.1,46.8,55.1,50.3,45.6,98,88,69,30.05,29.97,9,2,0,0.00
2012-5-21,61.9,53.5,48.8,56.5,52.0,48.6,100,93,74,30.11,30.02,10,1,0,0.00
2012-5-22,60.0,53.7,49.6,55.7,51.8,49.0,100,92,73,30.14,30.07,13,2,0,0.00
2012-5-23,56.9,51.7,48.3,51.0,49.2,47.1,99,89,73,30.07,29.96,11,3,0,0.00
2012-5-24,55.5,50.2,47.1,51.6,48.4,45.9,98,91,82,29.95,29.81,18,3,0,0.00
2012-5-25,54.5,49.5,46.7,49.2,47.3,45.3,97,90,76,29.89,29.79,10,2,0,0.00
2012-5-26,52.1,49.5,47.7,50.4,48.8,47.5,100,96,89,30.15,29.89,5,1,0,0.08
2012-5-27,58.0,50.9,47.2,52.3,48.7,46.4,97,90,76,30.16,30.08,10,1,0,0.00
2012-5-28,58.6,51.4,46.8,53.0,49.1,46.2,99,90,73,30.09,30.05,11,2,0,0.00
2012-5-29,57.6,50.3,46.9,52.1,48.3,46.0,97,91,76,30.09,30.04,8,2,0,0.00
2012-5-30,56.6,50.4,47.6,52.9,49.3,47.2,99,95,83,30.12,30.07,8,1,0,0.00
2012-5-31,64.3,53.4,47.6,56.7,51.0,47.2,99,90,70,30.07,29.89,9,2,0,0.00
2012-6-1,54.1,51.1,49.2,53.5,50.9,48.8,100,99,95,29.90,29.85,8,1,0,0.00
2012-6-2,61.3,53.1,49.5,57.6,52.4,49.2,100,96,83,30.00,29.90,8,1,0,0.01
2012-6-3,62.7,53.4,48.1,56.1,51.2,48.1,100,91,71,29.98,29.92,10,2,0,0.00
2012-6-4,57.7,53.4,48.9,57.1,52.1,48.5,99,94,83,30.15,29.91,6,1,0,0.30
2012-6-5,57.1,51.2,47.5,51.2,48.6,46.5,99,89,73,30.20,30.14,17,2,0,0.01
2012-6-6,56.6,50.4,46.0,51.7,48.2,45.5,98,90,77,30.14,30.01,11,2,0,0.00
2012-6-7,62.0,53.0,46.5,56.3,51.1,46.1,99,91,73,30.06,29.99,11,2,0,0.00
2012-6-8,58.0,51.9,48.0,51.6,49.0,46.3,98,87,67,30.02,29.97,12,3,0,0.00
2012-6-9,62.8,53.3,44.9,52.3,48.2,43.9,98,79,56,30.00,29.88,9,2,0,0.00
2012-6-10,77.8,66.5,50.4,54.5,46.2,41.6,83,39,27,29.90,29.84,7,1,0,0.00
2012-6-11,70.1,62.0,49.8,54.7,49.1,42.9,94,58,31,29.99,29.87,5,1,0,0.00
2012-6-12,60.2,52.7,49.5,55.6,51.2,48.7,98,93,77,30.02,29.95,9,1,0,0.00
2012-6-13,54.1,50.7,49.4,52.7,50.1,49.0,100,97,91,30.00,29.84,10,1,0,0.00
2012-6-14,55.3,50.7,48.3,52.2,49.4,47.4,99,94,84,29.88,29.82,5,1,0,0.00
2012-6-15,58.9,52.3,48.0,53.2,49.9,47.1,97,89,73,29.88,29.80,7,1,0,0.00
2012-6-16,70.4,59.2,49.6,59.8,53.7,49.0,98,78,56,29.86,29.80,5,1,0,0.00
2012-6-17,61.5,54.4,51.1,58.4,53.4,50.3,99,95,84,29.92,29.83,5,1,0,0.00
2012-6-18,58.6,52.5,48.7,57.1,51.6,48.0,100,96,85,29.95,29.90,6,1,0,0.00
2012-6-19,58.9,52.6,47.7,54.4,50.8,47.2,99,92,80,29.94,29.85,6,1,0,0.00
2012-6-20,64.5,53.2,47.9,56.1,51.3,47.3,99,92,67,29.89,29.83,6,1,0,0.00
2012-6-21,58.2,52.6,50.0,54.0,50.9,49.1,98,92,80,30.00,29.87,6,1,0,0.00
2012-6-22,62.3,53.9,49.1,55.3,51.2,47.7,97,88,72,29.99,29.88,6,1,0,0.00
2012-6-23,61.2,54.7,49.2,54.7,51.7,49.0,99,88,65,29.96,29.85,8,1,0,0.01
2012-6-24,62.2,54.9,47.9,53.1,50.3,47.3,97,81,58,30.05,29.95,9,1,0,0.01
2012-6-25,64.7,56.2,48.6,56.1,52.1,47.7,96,83,60,30.10,30.05,11,1,0,0.00
2012-6-26,63.3,55.8,50.7,56.4,52.4,49.3,96,85,71,30.05,29.91,9,2,0,0.00
2012-6-27,63.4,55.7,50.3,56.9,53.1,49.5,99,89,72,29.98,29.88,9,2,0,0.00
2012-6-28,64.3,56.1,50.8,57.8,53.8,50.2,99,90,70,30.10,29.97,10,1,0,0.00
2012-6-29,63.0,56.5,52.7,58.9,55.4,52.5,100,95,82,30.12,30.04,6,1,0,0.00
2012-6-30,66.2,58.8,54.2,61.4,57.6,54.1,100,95,79,30.05,29.96,5,1,0,0.00
2012-7-1,64.6,58.4,54.9,60.3,57.3,54.8,100,95,77,29.98,29.91,10,1,0,0.00
2012-7-2,56.8,54.9,53.3,55.4,54.3,52.5,100,97,92,29.97,29.88,6,1,0,0.01
2012-7-3,61.5,55.3,52.2,56.7,53.4,51.4,97,92,78,29.96,29.88,9,2,0,0.00
2012-7-4,57.2,54.0,52.2,54.5,52.6,51.6,97,94,87,29.95,29.85,6,1,0,0.00
2012-7-5,60.5,55.0,52.4,55.8,52.8,51.6,96,90,79,30.03,29.94,12,1,0,0.00
2012-7-6,59.1,54.2,51.3,55.8,52.9,50.9,99,94,85,30.05,29.99,7,1,0,0.00
2012-7-7,60.1,54.0,51.2,57.2,53.2,50.8,100,96,86,30.02,29.97,4,1,0,0.00
2012-7-8,55.6,52.4,50.2,55.2,52.3,50.2,100,99,96,30.07,29.99,6,1,0,0.01
2012-7-9,58.2,52.9,50.8,56.4,52.5,50.6,100,98,89,30.06,29.98,9,1,0,0.00
2012-7-10,59.9,52.0,49.2,56.5,51.4,49.2,100,98,84,29.98,29.88,6,1,0,0.00
2012-7-11,64.0,53.1,47.9,58.6,52.0,47.9,100,95,78,29.91,29.84,5,1,0,0.00
2012-7-12,56.3,51.3,47.9,55.0,51.0,47.9,100,99,92,29.92,29.83,6,1,0,0.00
2012-7-13,55.3,52.1,49.8,54.1,51.7,49.8,100,98,92,29.99,29.88,7,1,0,0.00
2012-7-14,60.2,54.2,50.4,56.1,53.2,50.2,100,95,82,30.00,29.93,4,1,0,0.00
2012-7-15,57.5,53.2,50.0,55.2,52.6,50.0,100,97,89,29.95,29.88,6,1,0,0.01
2012-7-16,61.6,55.1,51.5,57.3,53.6,51.5,100,93,81,29.94,29.87,11,1,0,0.00
2012-7-17,60.8,56.0,53.4,56.6,54.2,52.7,98,92,82,30.01,29.92,5,0,0,0.00
2012-7-18,64.1,57.9,54.0,57.2,54.4,52.9,95,85,71,30.02,29.97,6,1,0,0.00
2012-7-19,64.7,56.9,52.0,58.8,54.9,51.6,99,91,75,30.05,29.96,11,2,0,0.00
2012-7-20,62.9,56.3,53.3,58.1,54.9,52.7,100,94,80,30.08,30.00,10,2,0,0.00
2012-7-21,67.6,57.3,51.2,62.2,54.9,51.0,100,90,68,30.01,29.91,7,1,0,0.00
2012-7-22,56.6,53.3,51.1,55.7,53.0,51.1,100,98,93,29.98,29.91,4,1,0,0.00
2012-7-23,59.6,54.9,52.9,57.2,54.1,52.7,100,96,88,29.99,29.94,3,1,0,0.00
2012-7-24,61.9,56.0,52.6,56.9,54.0,51.8,97,91,78,29.99,29.93,7,1,0,0.00
2012-7-25,62.9,56.7,53.2,57.8,54.8,52.6,98,92,78,30.02,29.95,4,1,0,0.00
2012-7-26,60.5,56.1,53.2,56.5,53.8,51.9,95,90,82,30.01,29.94,5,1,0,0.00
2012-7-27,61.0,55.6,52.3,56.9,53.9,51.7,99,92,79,30.06,29.98,5,1,0,0.00
2012-7-28,57.2,53.4,51.5,55.4,53.0,51.5,100,98,90,30.09,30.01,5,1,0,0.00
2012-7-29,56.0,52.9,51.1,55.4,52.7,51.1,100,99,93,30.08,30.00,7,1,0,0.00
2012-7-30,62.3,54.7,51.7,58.9,53.8,51.7,100,96,83,30.01,29.92,4,1,0,0.01
2012-7-31,62.7,54.2,51.7,58.5,53.4,51.7,100,97,81,30.02,29.95,4,0,0,0.00
2012-8-1,58.0,53.2,50.9,56.2,52.8,50.8,100,98,88,30.08,30.01,6,1,0,0.00
2012-8-2,58.4,52.9,50.2,57.1,52.6,50.2,100,99,91,30.02,29.94,4,1,0,0.00
2012-8-3,58.2,53.6,50.3,57.3,53.4,50.3,100,99,93,29.95,29.88,3,0,0,0.01
2012-8-4,58.2,55.0,52.9,57.6,54.8,52.9,100,99,96,29.98,29.79,9,0,0,0.01
2012-8-5,64.9,57.4,54.7,59.8,56.2,54.1,100,95,79,30.08,29.98,5,1,0,0.00
2012-8-6,67.8,57.5,53.1,61.2,55.7,53.1,100,92,73,30.10,30.03,9,2,0,0.00
2012-8-7,63.4,56.2,52.8,58.0,54.4,52.0,100,92,76,30.08,29.99,12,2,0,0.00
2012-8-8,63.8,55.8,52.3,58.2,54.2,52.0,100,93,77,30.02,29.94,7,2,0,0.00
2012-8-9,61.6,53.5,50.6,57.6,52.9,50.6,100,97,83,29.96,29.86,7,2,0,0.00
2012-8-10,57.5,52.8,50.2,55.5,52.4,50.2,100,98,90,29.87,29.79,6,2,0,0.00
2012-8-11,61.0,53.2,49.6,58.0,52.6,49.6,100,97,85,29.85,29.76,6,1,0,0.00
2012-8-12,63.2,55.0,50.1,61.9,54.0,50.1,100,96,81,29.86,29.81,6,1,0,0.00
2012-8-13,65.1,55.5,50.2,59.6,54.3,50.2,100,95,77,29.87,29.81,5,0,0,0.00
2012-8-14,59.7,55.7,53.5,58.2,55.3,53.5,100,98,92,29.86,29.81,4,0,0,0.00
2012-8-15,60.6,56.2,53.5,58.1,55.1,53.3,99,95,86,29.91,29.81,4,0,0,0.00
2012-8-16,65.3,57.5,53.3,60.7,56.1,50.9,98,94,81,29.95,29.90,6,1,0,0.00
2012-8-17,66.6,56.3,51.8,59.7,33.0,-8.2,89,41,2,29.98,29.92,5,1,0,0.00
2012-8-18,68.6,58.2,52.8,56.0,17.2,0.0,58,17,4,29.97,29.92,9,2,0,0.00
2012-8-19,58.4,53.8,51.1,0.0,0.0,0.0,0,0,100,29.99,29.91,8,1,0,0.00
2012-8-20,55.0,52.1,50.1,0.0,0.0,0.0,0,0,100,29.96,29.91,5,1,0,0.00
2012-8-21,54.9,52.3,50.4,0.0,0.0,0.0,0,0,100,29.97,29.90,6,1,0,0.00
2012-8-22,59.1,53.8,50.8,0.0,0.0,0.0,0,0,100,29.99,29.92,4,1,0,0.00
2012-8-23,56.5,53.7,50.3,0.0,0.0,0.0,0,0,100,29.98,29.90,3,0,0,0.02
2012-8-24,59.5,53.2,49.5,49.4,6.2,-7.9,62,6,2,29.96,29.88,3,0,0,0.00
2012-8-25,57.4,52.7,50.7,35.7,1.9,-8.1,33,2,2,29.92,29.86,5,0,0,0.01
2012-8-26,64.4,55.8,50.4,56.6,27.5,-10.0,77,36,2,30.01,29.90,7,1,0,0.00
2012-8-27,70.3,58.1,52.2,59.6,27.9,-18.1,75,32,1,30.02,29.96,6,2,0,0.00
2012-8-28,75.2,62.9,55.6,63.3,47.7,-2.2,75,52,3,30.00,29.94,6,2,0,0.00
2012-8-29,72.4,57.4,48.7,61.3,27.1,-18.2,76,32,1,29.94,29.82,5,1,0,0.00
2012-8-30,57.6,52.5,49.7,0.0,0.0,0.0,0,0,100,29.90,29.80,5,0,0,0.00
2012-8-31,61.9,54.0,50.6,55.8,15.4,-9.5,75,19,2,30.01,29.90,9,1,0,0.01
2012-9-1,61.9,54.5,49.1,55.0,21.4,-18.4,74,26,1,30.07,29.99,7,1,0,0.00
2012-9-2,68.5,54.6,46.8,59.1,20.6,-8.6,77,26,2,29.99,29.92,5,1,0,0.00
2012-9-3,65.1,53.4,44.4,58.3,19.3,-7.7,75,24,2,29.99,29.92,5,1,0,0.01
2012-9-4,61.1,52.2,47.5,55.3,11.6,-16.0,76,15,1,30.04,29.99,6,1,0,0.00
2012-9-5,61.7,52.8,49.6,54.5,5.4,-16.9,73,6,1,30.00,29.96,5,0,0,0.00
2012-9-6,63.5,54.8,50.8,57.3,19.7,-19.1,76,25,1,30.02,29.95,6,1,0,0.00
2012-9-7,63.7,55.7,50.3,57.0,25.7,-19.2,76,34,1,30.08,30.00,6,1,0,0.00
2012-9-8,61.1,54.3,49.7,54.8,20.9,-18.9,75,26,1,30.06,29.99,9,2,0,0.00
2012-9-9,63.4,55.2,49.6,57.2,24.1,-18.0,75,30,1,30.01,29.92,12,2,0,0.00
2012-9-10,60.0,52.4,49.6,49.9,7.6,-3.8,63,8,3,29.96,29.88,9,1,0,0.00
2012-9-11,58.8,52.7,49.3,44.5,6.2,-16.9,50,6,1,29.99,29.87,3,0,0,0.00
2012-9-12,60.2,53.7,49.2,28.4,1.5,-14.8,20,1,1,30.08,29.98,5,0,0,0.00
2012-9-13,61.0,53.9,51.2,42.4,1.6,0.0,41,1,4,30.10,30.04,5,1,0,0.00
2012-9-14,61.0,53.5,50.4,54.4,8.3,-8.9,73,10,2,30.10,30.04,6,1,0,0.00
2012-9-15,62.6,53.5,49.4,57.3,14.5,-10.5,78,19,2,30.10,30.01,5,1,0,0.00
2012-9-16,58.5,51.2,47.8,49.3,4.8,-17.3,64,5,1,30.06,30.01,4,0,0,0.00
2012-9-17,61.7,53.6,50.1,55.3,26.8,-19.3,78,36,1,30.08,30.02,3,0,0,0.00
2012-9-18,60.6,52.9,48.8,55.2,19.6,-19.7,78,25,1,30.10,30.05,9,1,0,0.00
2012-9-19,60.8,53.5,50.0,55.3,17.1,-18.9,77,23,1,30.12,30.06,11,2,0,0.00
2012-9-20,60.4,52.9,47.4,54.6,22.7,-19.6,77,29,1,30.08,30.00,12,2,0,0.00
2012-9-21,61.0,53.3,48.8,55.2,18.4,-5.2,76,25,3,30.01,29.92,7,2,0,0.00
2012-9-22,60.4,52.3,48.8,53.7,12.4,-10.0,74,16,2,29.96,29.90,7,1,0,0.00
2012-9-23,62.3,49.9,44.9,56.2,6.6,-18.6,75,8,1,30.00,29.90,4,1,0,0.00
2012-9-24,54.5,50.6,46.9,0.0,0.0,0.0,0,0,100,30.00,29.92,5,1,0,0.00
2012-9-25,54.0,50.9,48.7,0.0,0.0,0.0,0,0,100,29.95,29.89,4,0,0,0.01
2012-9-26,52.6,50.6,49.2,0.0,0.0,0.0,0,0,100,29.93,29.88,4,0,0,0.00
2012-9-27,56.9,51.6,48.6,0.0,0.0,0.0,0,0,100,29.94,29.89,4,0,0,0.00
2012-9-28,55.5,52.4,50.8,0.0,0.0,0.0,0,0,100,29.99,29.90,3,0,0,0.00
2012-9-29,62.2,53.3,49.9,56.0,6.1,-17.8,76,7,1,30.05,29.96,4,1,0,0.00
2012-9-30,90.6,72.3,49.9,66.1,48.2,0.0,82,38,15,30.04,29.93,4,1,0,0.00
2012-10-1,94.6,80.7,72.6,59.3,50.8,45.4,37,27,17,29.94,29.84,5,2,0,0.00
2012-10-2,93.4,80.3,62.0,56.7,49.7,44.4,73,27,14,29.84,29.77,4,1,0,0.00
2012-10-3,69.7,61.2,55.7,59.0,34.4,-15.6,76,38,1,30.01,29.81,8,1,0,0.00
2012-10-4,64.9,57.1,52.4,58.4,27.4,-18.7,77,33,1,30.15,30.01,5,1,0,0.00
2012-10-5,69.4,58.3,52.7,59.2,21.3,-15.9,76,25,1,30.16,30.06,10,1,0,0.00
2012-10-6,69.4,60.4,54.1,58.0,45.0,0.0,75,56,7,30.06,29.96,10,2,0,0.00
2012-10-7,66.3,57.5,51.8,56.5,44.2,6.3,76,55,7,30.01,29.96,6,1,0,0.00
2012-10-8,67.4,56.8,50.1,58.0,27.4,-19.5,75,34,1,30.05,30.00,6,0,0,0.00
2012-10-9,66.3,56.8,49.6,57.6,20.5,-16.1,74,24,1,30.04,29.95,3,0,0,0.00
2012-10-10,61.6,55.0,52.4,50.9,8.2,-1.6,61,9,3,29.96,29.92,3,0,0,0.07
2012-10-11,57.4,53.1,50.8,45.5,8.9,0.0,56,9,6,29.99,29.90,3,0,0,0.08
2012-10-12,62.5,54.6,50.3,56.1,14.0,-16.3,74,18,1,30.23,29.97,3,0,0,0.00
2012-10-13,69.9,56.6,48.7,59.7,24.8,-19.1,73,30,1,30.28,30.17,6,2,0,0.00
2012-10-14,67.9,58.6,52.8,60.8,24.2,-15.6,73,28,1,30.19,30.06,6,2,0,0.00
2012-10-15,75.5,59.1,52.8,62.9,20.8,-3.8,73,24,2,30.08,29.97,9,2,0,0.00
2012-10-16,67.7,59.2,53.6,53.1,10.9,-7.6,51,8,2,30.00,29.88,12,1,0,0.00
2012-10-17,80.5,69.1,55.1,60.3,45.4,-3.2,73,37,2,29.88,29.78,6,2,0,0.00
2012-10-18,82.3,71.8,60.3,64.8,39.4,0.0,67,27,7,30.03,29.81,6,1,0,0.00
2012-10-19,69.2,60.0,54.0,56.6,5.2,0.0,57,4,3,30.06,29.93,5,0,0,0.00
2012-10-20,55.7,53.4,48.8,1.3,-0.2,-19.3,5,0,1,29.93,29.87,7,1,0,0.01
2012-10-21,59.0,51.5,45.3,51.4,25.9,0.0,73,35,26,29.98,29.88,8,1,0,0.00
2012-10-22,58.6,53.4,49.9,51.3,19.2,-19.3,73,23,1,29.98,29.79,7,1,0,0.22
2012-10-23,60.2,52.7,47.0,50.0,27.9,-19.7,74,38,1,30.06,29.96,5,0,0,0.02
2012-10-24,62.4,54.2,46.2,55.2,39.8,-9.1,74,54,3,30.19,30.05,10,1,0,0.00
2012-10-25,67.8,58.2,54.3,58.9,46.7,0.3,74,60,4,30.20,30.15,6,1,0,0.00
2012-10-26,72.0,57.5,51.3,53.2,47.2,38.5,74,62,27,30.20,30.06,5,2,0,0.00
2012-10-27,77.6,63.3,53.9,58.8,52.2,28.9,72,60,26,30.06,29.94,5,2,0,0.00
2012-10-28,75.1,58.1,52.1,61.3,20.3,-17.2,72,21,1,30.02,29.93,5,1,0,0.00
2012-10-29,70.0,54.1,49.7,60.4,7.0,-15.8,72,8,1,30.10,30.02,3,1,0,0.00
2012-10-30,66.3,53.2,48.8,58.2,4.3,-16.1,69,5,1,30.10,30.00,4,0,0,0.01
2012-10-31,55.4,53.1,50.6,0.0,0.0,0.0,0,0,100,30.07,29.99,3,0,0,0.01
2012-11-1,58.9,55.2,52.2,0.0,0.0,0.0,0,0,100,30.04,30.00,3,0,0,0.08
2012-11-2,62.1,53.2,48.3,55.1,17.7,-18.6,73,24,1,30.08,30.03,5,1,0,0.00
2012-11-3,72.2,59.6,50.5,59.1,40.6,-18.9,72,48,1,30.11,30.04,4,2,0,0.00
2012-11-4,77.7,67.1,58.7,58.5,52.9,46.1,71,53,36,30.16,30.08,5,3,0,0.00
2012-11-5,85.7,75.3,66.7,54.9,46.9,39.6,57,28,18,30.09,30.00,3,0,0,0.00
2012-11-6,80.0,71.4,55.9,53.3,46.3,38.5,69,34,17,30.04,29.98,5,0,0,0.00
2012-11-7,56.1,52.0,50.3,47.8,1.2,-10.2,69,2,2,30.06,29.99,3,0,0,0.00
2012-11-8,59.5,50.7,42.2,48.6,26.0,-18.9,72,35,1,30.01,29.92,5,0,0,0.19
2012-11-9,53.6,46.2,40.4,46.7,18.3,-23.2,71,29,1,30.02,29.90,7,0,0,0.11
2012-11-10,55.8,47.3,40.5,48.5,23.9,0.0,72,36,7,30.25,30.02,8,1,0,0.08
2012-11-11,59.5,49.0,43.2,45.7,36.6,10.7,72,55,14,30.36,30.25,5,0,0,0.00
2012-11-12,60.9,51.9,46.2,48.0,41.0,35.5,70,58,33,30.35,30.20,6,2,0,0.00
2012-11-13,69.3,55.8,43.4,50.2,40.9,34.5,67,49,23,30.20,30.04,6,3,0,0.00
2012-11-14,72.4,62.0,58.1,47.5,41.5,37.5,49,37,25,30.05,29.97,4,0,0,0.00
2012-11-15,67.1,59.1,53.9,53.4,41.2,-7.9,68,44,2,30.00,29.94,11,0,0,0.00
2012-11-16,62.9,56.4,52.6,52.5,13.9,-13.4,69,16,1,29.99,29.86,4,0,0,0.41
2012-11-17,58.3,55.6,52.3,0.0,0.0,0.0,0,0,100,30.02,29.83,7,2,0,0.15
2012-11-18,59.7,52.9,48.2,52.3,17.4,0.0,71,24,9,30.18,30.01,5,0,0,0.06
2012-11-19,60.9,54.4,49.5,52.8,44.3,15.6,71,62,10,30.25,30.17,4,0,0,0.00
2012-11-20,63.7,57.0,53.2,51.1,24.0,-6.7,58,24,2,30.19,30.08,5,1,0,0.00
2012-11-21,59.5,55.9,49.9,40.6,6.7,-17.8,47,7,1,30.19,30.06,7,1,0,0.06
2012-11-22,62.7,52.8,46.4,54.5,24.4,-11.4,68,31,2,30.22,30.15,5,2,0,0.01
2012-11-23,69.8,57.4,47.5,56.7,46.3,25.0,69,58,29,30.19,30.11,6,2,0,0.00
2012-11-24,68.6,60.1,51.8,56.3,39.4,-17.4,67,44,1,30.13,30.00,5,2,0,0.00
2012-11-25,59.5,52.5,47.9,51.2,8.4,-18.8,68,10,1,30.01,29.92,5,1,0,0.00
2012-11-26,55.9,50.6,47.3,43.4,5.3,-20.7,65,6,1,30.09,29.94,4,0,0,0.00
2012-11-27,59.2,53.5,48.1,49.9,24.2,-18.9,69,29,1,30.12,29.99,5,1,0,0.00
2012-11-28,61.8,56.1,52.2,51.2,17.9,-14.9,69,22,1,30.08,29.84,15,2,0,0.19
2012-11-29,62.6,59.1,53.0,52.2,41.6,0.0,69,45,10,30.08,29.91,12,2,0,0.00
2012-11-30,62.0,56.4,53.0,47.2,4.4,0.0,49,4,4,30.06,29.86,12,3,0,1.66
2012-12-1,60.3,57.4,52.4,37.5,2.4,-14.5,32,2,1,30.08,29.96,7,2,0,0.05
2012-12-2,58.8,55.3,49.1,0.0,0.0,0.0,0,0,100,30.10,29.88,13,2,0,0.77
2012-12-3,59.8,51.0,45.1,52.8,7.0,-17.7,72,8,1,30.20,30.09,2,0,0,0.00
2012-12-4,57.2,52.0,47.2,32.3,1.0,-16.6,28,1,1,30.27,30.18,4,0,0,0.00
2012-12-5,61.4,57.5,52.7,40.4,1.9,-9.2,46,2,2,30.20,30.07,4,0,0,0.50
2012-12-6,56.8,53.0,49.9,48.0,9.8,-19.1,69,13,1,30.15,30.06,7,1,0,0.01
2012-12-7,60.1,50.1,45.0,53.2,8.6,0.0,72,10,6,30.12,30.06,4,2,0,0.00
2012-12-8,56.6,50.3,45.1,49.6,20.0,0.0,72,29,31,30.06,29.99,4,1,0,0.01
2012-12-9,63.2,55.9,49.8,48.3,44.7,41.1,69,58,44,30.14,30.06,3,2,0,0.00
2012-12-10,63.8,59.5,55.3,52.6,49.5,45.0,69,62,53,30.18,30.08,4,2,0,0.00
2012-12-11,62.1,54.9,50.6,51.7,29.3,-18.9,69,36,1,30.06,29.91,4,1,0,0.00
2012-12-12,54.0,48.1,45.2,46.8,24.6,0.0,72,37,10,29.93,29.86,4,0,0,0.09
2012-12-13,52.7,45.2,40.7,43.9,28.5,0.0,72,46,10,29.90,29.83,2,0,0,0.00
2012-12-14,52.1,46.0,41.9,44.7,37.2,30.3,73,63,51,30.01,29.84,1,0,0,0.00
2012-12-15,50.6,44.6,41.6,43.6,22.3,0.0,72,36,15,30.08,30.00,0,0,0,0.12
2012-12-16,54.2,49.3,44.3,23.2,3.0,-9.4,20,3,2,30.11,30.02,3,1,0,0.00
2012-12-17,58.0,51.2,46.6,36.8,1.9,0.0,34,2,9,30.10,30.00,3,1,0,0.15
2012-12-18,51.3,46.6,42.6,42.2,38.9,24.3,72,67,27,30.17,30.00,6,2,0,0.00
2012-12-19,52.2,44.7,37.9,37.6,34.5,29.7,72,59,36,30.32,30.18,2,0,0,0.00
2012-12-20,57.4,48.0,40.3,45.3,35.6,30.4,68,53,29,30.23,30.05,5,1,0,0.00
2012-12-21,59.2,53.6,47.3,50.9,45.0,38.1,69,65,55,30.04,29.92,9,3,0,0.00